#timestamp,LO_Frequency,Hit,StdDev 
1668294015.5,286047001.8,P
1668294035.4,286047001.7,P
1668294055.2,286046999.7,N
1668294075.0,286047001.0,N
1668294076.0,286047001.0,N
1668294095.8,286046998.9,N
1668294115.6,286046998.5,N
1668294135.5,286046999.7,N
1668294155.3,286047002.0,N
1668294175.1,286047002.2,N
1668294195.9,286047001.0,N
1668294215.7,286046999.0,N
1668294235.6,286046997.6,N
1668294255.4,286046997.4,N
1668294275.2,286046996.8,N
1668294295.1,286046999.5,N
1668294296.0,286046999.5,N
1668294315.8,286046998.2,N
1668294335.6,286046998.1,N
1668294355.5,286046998.7,N
1668294375.3,286046999.1,N
1668294395.2,286047000.9,N
1668294415.9,286047001.2,N
1668294435.7,286046999.9,N
1668294455.6,286047002.6,N
1668294475.4,286047001.6,N
1668294495.2,286047004.0,N
1668294515.1,286047001.6,N
1668294516.0,286047001.6,N
1668294535.8,286047001.4,N
1668294555.7,286047004.0,N
1668294575.5,286047005.0,N
1668294595.3,286047007.3,Y
1668294615.2,286047003.3,P
1668294635.0,286047001.7,N
1668294635.9,286047001.7,N
1668294655.7,286047001.4,N
1668294675.6,286047002.5,N
1668294695.4,286047000.8,N
1668294715.3,286047002.1,N
1668294735.1,286047000.7,N
1668294736.0,286047000.7,N
1668294755.8,286047000.4,N
1668294775.7,286047000.9,N
1668294795.5,286046997.8,N
1668294815.3,286046998.4,N
1668294835.2,286047000.0,N
1668294855.0,286047002.1,N
1668294855.9,286047002.1,N
1668294875.8,286047003.7,N
1668294895.6,286047003.2,N
1668294915.4,286047003.7,N
1668294935.3,286047004.3,N
1668294955.1,286047004.4,N
1668294975.9,286047005.7,Y
1668294995.7,286047004.3,P
1668295015.5,286046999.8,N
1668295035.4,286046999.1,N
1668295055.2,286046999.1,N
1668295075.0,286046998.7,N
1668295075.9,286046998.7,N
1668295095.8,286047000.5,N
1668295115.6,286047000.2,N
1668295135.5,286047000.9,N
1668295155.3,286047001.0,N
1668295175.1,286047000.3,N
1668295195.9,286046998.2,N
1668295215.7,286046999.8,N
1668295235.5,286046999.9,N
1668295255.4,286047000.2,N
1668295275.2,286047000.9,N
1668295295.0,286046996.7,N
1668295296.0,286046996.7,N
1668295315.8,286046995.7,N
1668295335.6,286046996.0,N
1668295355.5,286046995.8,N
1668295375.3,286046997.5,N
1668295395.1,286046997.9,N
1668295415.9,286046997.5,N
1668295435.7,286046997.0,N
1668295455.5,286046998.4,N
1668295475.4,286046998.6,N
1668295495.2,286047001.1,N
1668295515.1,286047000.7,N
1668295516.0,286047000.7,N
1668295535.8,286046998.8,N
1668295555.6,286046999.1,N
1668295575.5,286047001.2,N
1668295595.3,286046999.2,N
1668295615.1,286046997.1,N
1668295635.9,286046997.2,N
1668295655.7,286046996.7,N
1668295675.6,286046994.9,N
1668295695.4,286046998.4,N
1668295715.2,286046998.8,N
1668295735.1,286047000.9,N
1668295736.0,286047000.9,N
1668295755.8,286047002.4,N
1668295775.6,286047002.8,N
1668295795.5,286047000.2,N
1668295815.3,286046999.9,N
1668295835.2,286046999.9,N
1668295855.9,286047000.9,N
1668295875.7,286047002.4,N
1668295895.6,286046999.9,N
1668295915.4,286047001.1,N
1668295935.2,286047001.0,N
1668295955.1,286046999.8,N
1668295956.0,286046999.8,N
1668295975.8,286047000.5,N
1668295995.7,286047002.3,N
1668296015.5,286047001.0,N
1668296035.3,286046996.6,N
1668296055.2,286046998.7,N
1668296075.0,286046998.2,N
1668296075.9,286046998.2,N
1668296095.7,286047002.1,N
1668296115.6,286047002.7,N
1668296135.4,286047000.9,N
1668296155.3,286047001.2,N
1668296175.1,286047000.7,N
1668296176.0,286047000.7,N
1668296195.8,286046997.4,N
1668296215.7,286046998.9,N
1668296235.5,286046998.7,N
1668296255.3,286047000.7,N
1668296275.2,286046999.0,N
1668296295.0,286047001.7,N
1668296295.9,286047001.7,N
1668296315.8,286047001.8,N
1668296335.6,286047002.1,N
1668296355.5,286047002.7,N
1668296375.3,286047000.4,N
1668296395.1,286047002.2,N
1668296415.9,286047004.3,N
1668296435.7,286047003.2,N
1668296455.6,286047001.9,N
1668296475.4,286047000.3,N
1668296495.2,286047000.5,N
1668296515.1,286047000.3,N
1668296546.0,286047001.1,E
1668296555.0,286046998.7,N
1668296555.9,286046998.7,P
1668296575.8,286046999.2,P
1668296595.6,286046996.7,Y
1668296615.4,286046998.7,P
1668296635.3,286046995.1,P
1668296655.1,286046995.9,N
1668296675.8,286046995.2,N
1668296695.7,286046995.1,N
1668296715.5,286046998.0,N
1668296735.4,286046996.5,N
1668296755.2,286046998.2,N
1668296775.0,286046998.5,N
1668296775.9,286046998.5,N
1668296795.8,286047001.0,N
1668296815.6,286047001.0,N
1668296835.4,286046999.5,N
1668296855.3,286047000.8,N
1668296875.1,286047000.3,N
1668296895.9,286047000.3,N
1668296915.7,286046999.8,N
1668296935.7,286047002.4,N
1668296955.5,286047001.4,N
1668296975.3,286047001.9,N
1668296995.2,286047002.6,N
1668297015.0,286046999.9,N
1668297015.9,286046999.9,N
1668297035.7,286047002.2,N
1668297055.6,286047000.0,N
1668297075.4,286047002.4,N
1668297095.3,286047001.8,N
1668297115.1,286047004.1,N
1668297116.0,286047004.1,N
1668297135.8,286047004.3,N
1668297155.7,286047002.1,N
1668297175.5,286047002.3,N
1668297195.4,286047001.2,N
1668297215.2,286047000.0,N
1668297235.0,286047002.6,N
1668297235.9,286047002.6,N
1668297255.8,286047002.7,N
1668297275.6,286047002.1,N
1668297295.5,286047000.0,N
1668297315.3,286047001.5,N
1668297335.1,286047000.2,N
1668297355.9,286046998.4,N
1668297375.7,286046998.1,N
1668297395.5,286047001.0,N
1668297415.4,286047001.9,N
1668297435.2,286047004.3,N
1668297455.1,286047001.5,N
1668297456.0,286047001.5,N
1668297475.8,286047002.0,N
1668297495.6,286047001.7,N
1668297515.5,286047001.9,N
1668297535.3,286046999.8,N
1668297555.2,286047001.3,N
1668297575.9,286047001.5,N
1668297595.7,286047002.5,N
